TimeCDT,TemperatureF,Dew PointF,Humidity,Sea Level PressureIn,VisibilityMPH,Wind Direction,Wind SpeedMPH,Gust SpeedMPH,PrecipitationIn,Events,Conditions,WindDirDegrees,DateUTC
12:53 AM,68.0,66.9,96,29.88,8.0,Calm,Calm,-,N/A,,Clear,0,2013-09-07 05:53:00
1:53 AM,64.9,64.0,97,29.88,8.0,Calm,Calm,-,N/A,,Clear,0,2013-09-07 06:53:00
2:53 AM,66.0,64.9,96,29.88,9.0,North,3.5,-,N/A,,Clear,10,2013-09-07 07:53:00
3:53 AM,64.9,64.0,97,29.89,7.0,Calm,Calm,-,N/A,,Clear,0,2013-09-07 08:53:00
4:53 AM,64.0,64.0,100,29.91,6.0,North,4.6,-,N/A,,Clear,360,2013-09-07 09:53:00
5:53 AM,64.0,63.0,96,29.93,6.0,North,4.6,-,N/A,,Clear,360,2013-09-07 10:53:00
6:53 AM,64.0,63.0,96,29.94,6.0,North,4.6,-,N/A,,Clear,10,2013-09-07 11:53:00
7:53 AM,66.0,64.9,96,29.95,6.0,NNE,5.8,-,N/A,,Clear,30,2013-09-07 12:53:00
8:53 AM,71.1,68.0,90,29.96,10.0,NNE,9.2,-,N/A,,Clear,30,2013-09-07 13:53:00
9:53 AM,73.9,66.9,79,29.96,10.0,NE,10.4,-,N/A,,Clear,40,2013-09-07 14:53:00
10:53 AM,75.9,66.9,74,29.98,10.0,NE,12.7,-,N/A,,Clear,40,2013-09-07 15:53:00
11:53 AM,82.0,66.9,60,29.99,10.0,ENE,10.4,-,N/A,,Clear,70,2013-09-07 16:53:00
12:53 PM,84.0,66.9,56,29.98,10.0,NE,11.5,-,N/A,,Clear,40,2013-09-07 17:53:00
1:53 PM,86.0,66.9,53,29.97,10.0,ENE,13.8,-,N/A,,Clear,70,2013-09-07 18:53:00
2:53 PM,88.0,66.9,49,29.96,10.0,East,12.7,-,N/A,,Clear,90,2013-09-07 19:53:00
3:53 PM,88.0,66.9,49,29.96,10.0,ENE,10.4,-,N/A,,Clear,60,2013-09-07 20:53:00
4:53 PM,87.1,69.1,55,29.96,10.0,NE,16.1,-,N/A,,Clear,40,2013-09-07 21:53:00
5:53 PM,84.9,68.0,57,29.96,10.0,NE,11.5,-,N/A,,Clear,50,2013-09-07 22:53:00
6:53 PM,82.9,66.9,58,29.96,10.0,NE,12.7,-,N/A,,Clear,50,2013-09-07 23:53:00
7:53 PM,79.0,68.0,69,29.96,10.0,NE,11.5,-,N/A,,Clear,40,2013-09-08 00:53:00
8:53 PM,75.9,66.9,74,29.98,10.0,NNE,9.2,-,N/A,,Clear,30,2013-09-08 01:53:00
9:53 PM,73.9,66.9,79,30.00,10.0,NE,8.1,-,N/A,,Clear,40,2013-09-08 02:53:00
10:53 PM,73.0,66.0,79,29.99,10.0,ENE,8.1,-,N/A,,Clear,60,2013-09-08 03:53:00
11:53 PM,72.0,62.1,71,29.98,10.0,NE,8.1,-,N/A,,Clear,50,2013-09-08 04:53:00